| time (UTC) | temp C | wind direction | speed KPH | gust KPH | rain 1hr cm | rain 24hr cm | rain mn cm | humidity % | barometer mb |
| 20260507140444 | 10 | 284 | 4.8 | 9.7 | 0.00 | 0.00 | 0.00 | 85 | 1020.9 |
| 20260507135942 | 10 | 309 | 8.0 | 9.7 | 0.00 | 0.00 | 0.00 | 85 | 1020.8 |
| 20260507135438 | 10 | 307 | 9.7 | 11.3 | 0.00 | 0.00 | 0.00 | 85 | 1020.8 |
| 20260507134936 | 10 | 308 | 4.8 | 11.3 | 0.00 | 0.00 | 0.00 | 85 | 1020.6 |
| 20260507134432 | 10 | 307 | 6.4 | 9.7 | 0.00 | 0.00 | 0.00 | 86 | 1020.9 |
| 20260507133928 | 10 | 291 | 3.2 | 6.4 | 0.00 | 0.00 | 0.00 | 86 | 1020.4 |
| 20260507133424 | 10 | 301 | 6.4 | 9.7 | 0.00 | 0.00 | 0.00 | 86 | 1020.7 |
| 20260507132923 | 10 | 310 | 3.2 | 6.4 | 0.00 | 0.00 | 0.00 | 86 | 1020.6 |
| 20260507132419 | 10 | 327 | 4.8 | 4.8 | 0.00 | 0.00 | 0.00 | 86 | 1020.6 |
| 20260507131915 | 10 | 310 | 4.8 | 8.0 | 0.00 | 0.00 | 0.00 | 86 | 1020.6 |
| 20260507131413 | 10 | 316 | 4.8 | 8.0 | 0.00 | 0.00 | 0.00 | 86 | 1020.7 |
| 20260507130909 | 10 | 323 | 3.2 | 6.4 | 0.00 | 0.00 | 0.00 | 86 | 1020.5 |
| 20260507130406 | 10 | 312 | 3.2 | 8.0 | 0.00 | 0.00 | 0.00 | 87 | 1020.6 |
| 20260507125905 | 10 | 302 | 4.8 | 6.4 | 0.00 | 0.00 | 0.00 | 86 | 1020.7 |
| 20260507125402 | 10 | 297 | 6.4 | 9.7 | 0.00 | 0.00 | 0.00 | 86 | 1020.7 |
| 20260507124900 | 10 | 302 | 4.8 | 9.7 | 0.00 | 0.00 | 0.00 | 86 | 1020.8 |
| 20260507124355 | 10 | 307 | 6.4 | 11.3 | 0.00 | 0.00 | 0.00 | 85 | 1020.6 |
| 20260507123854 | 10 | 297 | 6.4 | 9.7 | 0.00 | 0.00 | 0.00 | 85 | 1020.8 |
| 20260507123351 | 10 | 307 | 3.2 | 8.0 | 0.00 | 0.00 | 0.00 | 85 | 1020.8 |
| 20260507122847 | 10 | 300 | 6.4 | 8.0 | 0.00 | 0.00 | 0.00 | 85 | 1020.6 |
| 20260507122343 | 10 | 310 | 11.3 | 12.9 | 0.00 | 0.00 | 0.00 | 85 | 1020.8 |
| 20260507121839 | 10 | 309 | 4.8 | 9.7 | 0.00 | 0.00 | 0.00 | 85 | 1020.7 |
| 20260507121335 | 10 | 311 | 4.8 | 9.7 | 0.00 | 0.00 | 0.00 | 85 | 1020.7 |
| 20260507120832 | 10 | 310 | 4.8 | 11.3 | 0.00 | 0.00 | 0.00 | 85 | 1020.7 |
| 20260507120328 | 10 | 309 | 4.8 | 8.0 | 0.00 | 0.00 | 0.00 | 85 | 1020.9 |
| 20260507115824 | 10 | 288 | 6.4 | 8.0 | 0.00 | 0.00 | 0.00 | 85 | 1020.9 |
| 20260507115320 | 10 | 308 | 11.3 | 14.5 | 0.00 | 0.00 | 0.00 | 85 | 1021.0 |
| 20260507114816 | 10 | 301 | 4.8 | 11.3 | 0.00 | 0.00 | 0.00 | 85 | 1021.1 |
| 20260507114313 | 10 | 321 | 6.4 | 12.9 | 0.00 | 0.00 | 0.00 | 85 | 1021.1 |
| 20260507113811 | 10 | 315 | 12.9 | 12.9 | 0.00 | 0.00 | 0.00 | 85 | 1021.1 |
| 20260507113308 | 10 | 313 | 9.7 | 11.3 | 0.00 | 0.00 | 0.00 | 85 | 1021.2 |
| 20260507112805 | 10 | 302 | 4.8 | 11.3 | 0.00 | 0.00 | 0.00 | 85 | 1021.1 |
| 20260507112306 | 11 | 309 | 6.4 | 11.3 | 0.00 | 0.00 | 0.00 | 85 | 1021.0 |
| 20260507111800 | 11 | 304 | 6.4 | 9.7 | 0.00 | 0.00 | 0.00 | 85 | 1021.1 |
| 20260507111256 | 11 | 293 | 6.4 | 11.3 | 0.00 | 0.00 | 0.00 | 85 | 1021.0 |
| 20260507110752 | 11 | 314 | 8.0 | 16.1 | 0.00 | 0.00 | 0.00 | 85 | 1021.2 |
| 20260507110249 | 11 | 299 | 8.0 | 11.3 | 0.00 | 0.00 | 0.00 | 85 | 1021.4 |
| 20260507105746 | 11 | 307 | 4.8 | 12.9 | 0.00 | 0.00 | 0.00 | 85 | 1020.9 |
| 20260507105241 | 11 | 289 | 4.8 | 8.0 | 0.00 | 0.00 | 0.00 | 85 | 1021.0 |
| 20260507104739 | 11 | 311 | 8.0 | 9.7 | 0.00 | 0.00 | 0.00 | 85 | 1021.3 |
| 20260507104236 | 11 | 308 | 12.9 | 14.5 | 0.00 | 0.00 | 0.00 | 85 | 1021.3 |
| 20260507103732 | 11 | 294 | 8.0 | 12.9 | 0.00 | 0.00 | 0.00 | 85 | 1021.3 |
| 20260507103228 | 11 | 306 | 6.4 | 11.3 | 0.00 | 0.00 | 0.00 | 84 | 1021.3 |
| 20260507102724 | 11 | 294 | 4.8 | 11.3 | 0.00 | 0.00 | 0.00 | 84 | 1021.3 |
| 20260507102221 | 11 | 308 | 6.4 | 14.5 | 0.00 | 0.00 | 0.00 | 84 | 1021.3 |
| 20260507101717 | 11 | 313 | 4.8 | 12.9 | 0.00 | 0.00 | 0.00 | 84 | 1021.5 |
| 20260507101213 | 11 | 300 | 4.8 | 11.3 | 0.00 | 0.00 | 0.00 | 84 | 1021.4 |
| 20260507100710 | 11 | 286 | 6.4 | 11.3 | 0.00 | 0.00 | 0.00 | 84 | 1021.2 |
| 20260507100208 | 11 | 286 | 4.8 | 14.5 | 0.00 | 0.00 | 0.00 | 84 | 1021.4 |
| 20260507095706 | 11 | 298 | 8.0 | 12.9 | 0.00 | 0.00 | 0.00 | 84 | 1021.3 |
| 20260507095202 | 11 | 294 | 6.4 | 12.9 | 0.00 | 0.00 | 0.00 | 84 | 1021.5 |
| 20260507094659 | 11 | 293 | 6.4 | 16.1 | 0.00 | 0.00 | 0.00 | 83 | 1021.5 |
| 20260507094156 | 11 | 286 | 4.8 | 14.5 | 0.00 | 0.00 | 0.00 | 84 | 1021.7 |
| 20260507093653 | 11 | 260 | 8.0 | 11.3 | 0.00 | 0.00 | 0.00 | 84 | 1021.5 |
| 20260507093152 | 11 | 287 | 4.8 | 14.5 | 0.00 | 0.00 | 0.00 | 84 | 1021.6 |
| 20260507092648 | 11 | 310 | 8.0 | 14.5 | 0.00 | 0.00 | 0.00 | 83 | 1021.6 |
| 20260507092145 | 11 | 295 | 12.9 | 14.5 | 0.00 | 0.00 | 0.00 | 83 | 1021.6 |
| 20260507091641 | 11 | 307 | 11.3 | 14.5 | 0.00 | 0.00 | 0.00 | 83 | 1021.8 |
| 20260507091137 | 11 | 299 | 4.8 | 12.9 | 0.00 | 0.00 | 0.00 | 83 | 1021.7 |
| 20260507090633 | 11 | 311 | 9.7 | 16.1 | 0.00 | 0.00 | 0.00 | 83 | 1021.7 |
| 20260507090131 | 11 | 302 | 4.8 | 12.9 | 0.00 | 0.00 | 0.00 | 83 | 1021.7 |
| 20260507085627 | 11 | 294 | 6.4 | 20.9 | 0.00 | 0.00 | 0.00 | 83 | 1021.7 |
| 20260507085124 | 11 | 314 | 11.3 | 11.3 | 0.00 | 0.00 | 0.00 | 83 | 1021.7 |
| 20260507084621 | 11 | 281 | 6.4 | 14.5 | 0.00 | 0.00 | 0.00 | 83 | 1021.9 |
| 20260507084118 | 11 | 325 | 8.0 | 16.1 | 0.00 | 0.00 | 0.00 | 83 | 1021.9 |
| 20260507083615 | 11 | 299 | 3.2 | 14.5 | 0.00 | 0.00 | 0.00 | 83 | 1021.6 |
| 20260507083112 | 11 | 311 | 6.4 | 9.7 | 0.00 | 0.00 | 0.00 | 83 | 1021.6 |
| 20260507082607 | 11 | 260 | 6.4 | 14.5 | 0.00 | 0.00 | 0.00 | 83 | 1021.7 |
| 20260507082104 | 11 | 282 | 4.8 | 9.7 | 0.00 | 0.00 | 0.00 | 83 | 1021.6 |
| 20260507081600 | 11 | 310 | 3.2 | 16.1 | 0.00 | 0.00 | 0.00 | 82 | 1021.8 |
| 20260507081057 | 11 | 305 | 6.4 | 11.3 | 0.00 | 0.00 | 0.00 | 82 | 1021.7 |
| 20260507080553 | 11 | 303 | 6.4 | 11.3 | 0.00 | 0.00 | 0.00 | 82 | 1021.7 |
| 20260507080050 | 11 | 280 | 4.8 | 17.7 | 0.00 | 0.00 | 0.00 | 82 | 1021.6 |
| 20260507075545 | 11 | 313 | 12.9 | 17.7 | 0.00 | 0.00 | 0.00 | 83 | 1021.7 |
| 20260507075041 | 11 | 297 | 4.8 | 12.9 | 0.00 | 0.00 | 0.00 | 83 | 1021.6 |
| 20260507074538 | 11 | 260 | 11.3 | 16.1 | 0.00 | 0.00 | 0.00 | 83 | 1021.7 |
| 20260507074037 | 11 | 279 | 9.7 | 14.5 | 0.00 | 0.00 | 0.00 | 83 | 1021.9 |
| 20260507073533 | 11 | 276 | 8.0 | 17.7 | 0.00 | 0.00 | 0.00 | 83 | 1021.6 |
| 20260507073029 | 11 | 306 | 11.3 | 17.7 | 0.00 | 0.00 | 0.00 | 83 | 1021.7 |
| 20260507072527 | 11 | 321 | 12.9 | 17.7 | 0.00 | 0.00 | 0.00 | 83 | 1021.7 |
| 20260507072024 | 11 | 307 | 16.1 | 17.7 | 0.00 | 0.00 | 0.00 | 83 | 1021.8 |
| 20260507071521 | 11 | 308 | 16.1 | 24.1 | 0.00 | 0.00 | 0.00 | 83 | 1021.8 |
| 20260507071018 | 11 | 311 | 11.3 | 19.3 | 0.00 | 0.00 | 0.00 | 83 | 1021.7 |
| 20260507070515 | 11 | 309 | 11.3 | 16.1 | 0.00 | 0.00 | 0.00 | 83 | 1021.8 |
| 20260507070013 | 11 | 281 | 6.4 | 27.4 | 0.00 | 0.00 | 0.00 | 83 | 1021.8 |
| 20260507065508 | 11 | 309 | 17.7 | 27.4 | 0.00 | 0.00 | 0.00 | 83 | 1021.6 |
| 20260507065005 | 11 | 312 | 12.9 | 20.9 | 0.00 | 0.00 | 0.00 | 83 | 1021.6 |
| 20260507064504 | 11 | 313 | 11.3 | 22.5 | 0.00 | 0.00 | 0.00 | 83 | 1021.5 |
| 20260507064001 | 11 | 302 | 16.1 | 19.3 | 0.00 | 0.00 | 0.00 | 83 | 1021.6 |
| 20260507063458 | 11 | 312 | 14.5 | 17.7 | 0.00 | 0.00 | 0.00 | 83 | 1021.6 |
| 20260507062955 | 11 | 306 | 14.5 | 17.7 | 0.00 | 0.00 | 0.00 | 83 | 1021.7 |
| 20260507062452 | 11 | 290 | 6.4 | 25.7 | 0.00 | 0.00 | 0.00 | 83 | 1021.7 |
| 20260507061949 | 11 | 277 | 11.3 | 24.1 | 0.00 | 0.00 | 0.00 | 83 | 1021.7 |
| 20260507061447 | 11 | 309 | 9.7 | 17.7 | 0.00 | 0.00 | 0.00 | 83 | 1021.8 |
| 20260507060946 | 11 | 302 | 6.4 | 14.5 | 0.00 | 0.00 | 0.00 | 83 | 1021.7 |
| 20260507060442 | 11 | 302 | 12.9 | 19.3 | 0.00 | 0.00 | 0.00 | 83 | 1021.7 |
| 20260507055939 | 11 | 285 | 9.7 | 20.9 | 0.00 | 0.00 | 0.00 | 83 | 1021.7 |
| 20260507055434 | 11 | 267 | 6.4 | 17.7 | 0.00 | 0.00 | 0.00 | 83 | 1021.4 |
| 20260507054931 | 11 | 284 | 8.0 | 14.5 | 0.00 | 0.00 | 0.00 | 82 | 1021.8 |
| 20260507054427 | 11 | 269 | 12.9 | 24.1 | 0.00 | 0.00 | 0.00 | 82 | 1021.6 |
| 20260507053925 | 11 | 299 | 16.1 | 22.5 | 0.00 | 0.00 | 0.00 | 82 | 1021.6 |
| 20260507053422 | 11 | 277 | 11.3 | 20.9 | 0.00 | 0.00 | 0.00 | 82 | 1021.6 |
| 20260507052920 | 11 | 274 | 22.5 | 22.5 | 0.00 | 0.00 | 0.00 | 82 | 1021.4 |
| 20260507052418 | 11 | 283 | 6.4 | 27.4 | 0.00 | 0.00 | 0.00 | 82 | 1021.7 |
| 20260507051914 | 11 | 306 | 20.9 | 32.2 | 0.00 | 0.00 | 0.00 | 82 | 1021.7 |
| 20260507051412 | 11 | 283 | 11.3 | 37.0 | 0.00 | 0.00 | 0.00 | 82 | 1021.6 |
| 20260507050909 | 11 | 343 | 12.9 | 38.6 | 0.00 | 0.00 | 0.00 | 81 | 1021.5 |
| 20260507050405 | 11 | 296 | 12.9 | 22.5 | 0.00 | 0.00 | 0.00 | 82 | 1021.4 |
| 20260507045902 | 11 | 302 | 9.7 | 33.8 | 0.00 | 0.00 | 0.00 | 82 | 1021.5 |
| 20260507045359 | 11 | 309 | 16.1 | 37.0 | 0.00 | 0.00 | 0.00 | 82 | 1021.4 |
| 20260507044856 | 11 | 287 | 11.3 | 33.8 | 0.00 | 0.00 | 0.00 | 82 | 1021.7 |
| 20260507044352 | 11 | 281 | 12.9 | 20.9 | 0.00 | 0.00 | 0.00 | 82 | 1021.5 |
| 20260507043848 | 11 | 299 | 14.5 | 22.5 | 0.00 | 0.00 | 0.00 | 82 | 1021.6 |
| 20260507043345 | 11 | 277 | 17.7 | 25.7 | 0.00 | 0.00 | 0.00 | 82 | 1021.4 |
| 20260507042841 | 11 | 293 | 6.4 | 27.4 | 0.00 | 0.00 | 0.00 | 82 | 1021.4 |
| 20260507042337 | 11 | 272 | 16.1 | 29.0 | 0.00 | 0.00 | 0.00 | 82 | 1021.4 |
| 20260507041834 | 11 | 286 | 17.7 | 33.8 | 0.00 | 0.00 | 0.00 | 82 | 1021.4 |
| 20260507041331 | 11 | 303 | 17.7 | 30.6 | 0.00 | 0.00 | 0.00 | 82 | 1021.5 |
| 20260507040828 | 11 | 274 | 20.9 | 33.8 | 0.00 | 0.00 | 0.00 | 81 | 1021.3 |
| 20260507040324 | 11 | 251 | 19.3 | 38.6 | 0.00 | 0.00 | 0.00 | 81 | 1021.4 |
| 20260507035820 | 11 | 308 | 24.1 | 37.0 | 0.00 | 0.00 | 0.00 | 81 | 1021.0 |
| 20260507035316 | 11 | 294 | 27.4 | 32.2 | 0.00 | 0.00 | 0.00 | 81 | 1021.1 |
| 20260507034814 | 11 | 269 | 11.3 | 38.6 | 0.00 | 0.00 | 0.00 | 82 | 1021.1 |
| 20260507034310 | 11 | 300 | 16.1 | 29.0 | 0.00 | 0.00 | 0.00 | 82 | 1020.8 |
| 20260507033809 | 11 | 314 | 19.3 | 38.6 | 0.00 | 0.00 | 0.00 | 81 | 1020.8 |
| 20260507033306 | 11 | 280 | 22.5 | 45.1 | 0.00 | 0.00 | 0.00 | 81 | 1021.2 |
| 20260507032803 | 11 | 310 | 19.3 | 32.2 | 0.00 | 0.00 | 0.00 | 81 | 1021.1 |
| 20260507032259 | 11 | 286 | 16.1 | 30.6 | 0.00 | 0.00 | 0.00 | 81 | 1020.9 |
| 20260507031755 | 11 | 269 | 16.1 | 35.4 | 0.00 | 0.00 | 0.00 | 81 | 1021.0 |
| 20260507031252 | 12 | 292 | 19.3 | 20.9 | 0.00 | 0.00 | 0.00 | 80 | 1021.1 |
| 20260507030749 | 12 | 293 | 6.4 | 27.4 | 0.00 | 0.00 | 0.00 | 80 | 1020.8 |
| 20260507030246 | 12 | 263 | 24.1 | 30.6 | 0.00 | 0.00 | 0.00 | 80 | 1021.1 |
| 20260507025743 | 12 | 324 | 24.1 | 51.5 | 0.00 | 0.00 | 0.00 | 79 | 1021.1 |
| 20260507025240 | 12 | 286 | 11.3 | 24.1 | 0.00 | 0.00 | 0.00 | 80 | 1021.2 |
| 20260507024739 | 12 | 312 | 19.3 | 30.6 | 0.00 | 0.00 | 0.00 | 80 | 1021.4 |
| 20260507024236 | 12 | 276 | 16.1 | 37.0 | 0.00 | 0.00 | 0.00 | 80 | 1021.2 |
| 20260507023731 | 12 | 276 | 11.3 | 22.5 | 0.00 | 0.00 | 0.00 | 80 | 1020.9 |
| 20260507023229 | 12 | 287 | 14.5 | 48.3 | 0.00 | 0.00 | 0.00 | 79 | 1021.0 |
| 20260507022726 | 12 | 281 | 14.5 | 30.6 | 0.00 | 0.00 | 0.00 | 79 | 1021.0 |
| 20260507022221 | 12 | 291 | 8.0 | 41.8 | 0.00 | 0.00 | 0.00 | 78 | 1020.9 |
| 20260507021718 | 13 | 313 | 32.2 | 35.4 | 0.00 | 0.00 | 0.00 | 77 | 1020.9 |
| 20260507021213 | 13 | 304 | 27.4 | 45.1 | 0.00 | 0.00 | 0.00 | 76 | 1021.0 |
| 20260507020712 | 13 | 303 | 12.9 | 33.8 | 0.00 | 0.00 | 0.00 | 76 | 1021.0 |
| 20260507020208 | 13 | 296 | 22.5 | 35.4 | 0.00 | 0.00 | 0.00 | 76 | 1020.9 |
| 20260507015706 | 13 | 300 | 16.1 | 29.0 | 0.00 | 0.00 | 0.00 | 76 | 1021.0 |
| 20260507015203 | 13 | 293 | 17.7 | 38.6 | 0.00 | 0.00 | 0.00 | 75 | 1021.0 |
| 20260507014659 | 13 | 308 | 30.6 | 33.8 | 0.00 | 0.00 | 0.00 | 75 | 1021.0 |
| 20260507014155 | 13 | 289 | 12.9 | 32.2 | 0.00 | 0.00 | 0.00 | 75 | 1021.0 |
| 20260507013653 | 13 | 279 | 14.5 | 40.2 | 0.00 | 0.00 | 0.00 | 75 | 1020.9 |
| 20260507013149 | 13 | 302 | 27.4 | 40.2 | 0.00 | 0.00 | 0.00 | 75 | 1021.2 |
| 20260507012647 | 14 | 296 | 11.3 | 40.2 | 0.00 | 0.00 | 0.00 | 75 | 1021.1 |
| 20260507012142 | 14 | 308 | 27.4 | 33.8 | 0.00 | 0.00 | 0.00 | 74 | 1021.2 |
| 20260507011641 | 14 | 291 | 32.2 | 37.0 | 0.00 | 0.00 | 0.00 | 74 | 1021.0 |
| 20260507011137 | 14 | 299 | 20.9 | 45.1 | 0.00 | 0.00 | 0.00 | 74 | 1020.9 |
| 20260507010631 | 14 | 268 | 29.0 | 32.2 | 0.00 | 0.00 | 0.00 | 74 | 1021.2 |
| 20260507010128 | 15 | 285 | 17.7 | 38.6 | 0.00 | 0.00 | 0.00 | 72 | 1020.8 |
| 20260507005625 | 15 | 250 | 14.5 | 25.7 | 0.00 | 0.00 | 0.00 | 72 | 1020.9 |
| 20260507005121 | 15 | 301 | 20.9 | 40.2 | 0.00 | 0.00 | 0.00 | 73 | 1021.1 |
| 20260507004618 | 15 | 299 | 20.9 | 43.5 | 0.00 | 0.00 | 0.00 | 72 | 1021.2 |
| 20260507004116 | 15 | 279 | 16.1 | 35.4 | 0.00 | 0.00 | 0.00 | 72 | 1021.1 |
| 20260507003612 | 15 | 276 | 20.9 | 46.7 | 0.00 | 0.00 | 0.00 | 72 | 1021.0 |
| 20260507003107 | 15 | 287 | 14.5 | 29.0 | 0.00 | 0.00 | 0.00 | 71 | 1021.1 |
| 20260507002604 | 15 | 281 | 19.3 | 35.4 | 0.00 | 0.00 | 0.00 | 71 | 1021.2 |
| 20260507002059 | 15 | 321 | 24.1 | 37.0 | 0.00 | 0.00 | 0.00 | 70 | 1021.0 |
| 20260507001556 | 15 | 291 | 19.3 | 35.4 | 0.00 | 0.00 | 0.00 | 71 | 1020.9 |
| 20260507001054 | 15 | 305 | 29.0 | 48.3 | 0.00 | 0.00 | 0.00 | 70 | 1021.0 |
| 20260507000550 | 15 | 294 | 19.3 | 32.2 | 0.00 | 0.00 | 0.00 | 70 | 1021.0 |
| 20260507000045 | 16 | 296 | 20.9 | 35.4 | 0.00 | 0.00 | 0.00 | 70 | 1020.8 |
| 20260506235543 | 15 | 264 | 22.5 | 35.4 | 0.00 | 0.00 | 0.00 | 70 | 1020.9 |
| 20260506235038 | 15 | 301 | 27.4 | 53.1 | 0.00 | 0.00 | 0.00 | 70 | 1020.9 |
| 20260506234536 | 16 | 290 | 29.0 | 41.8 | 0.00 | 0.00 | 0.00 | 69 | 1021.0 |
| 20260506234033 | 16 | 308 | 19.3 | 40.2 | 0.00 | 0.00 | 0.00 | 69 | 1021.0 |
| 20260506233530 | 16 | 305 | 30.6 | 40.2 | 0.00 | 0.00 | 0.00 | 69 | 1020.8 |
| 20260506233027 | 15 | 305 | 24.1 | 38.6 | 0.00 | 0.00 | 0.00 | 70 | 1021.1 |
| 20260506232523 | 16 | 317 | 20.9 | 33.8 | 0.00 | 0.00 | 0.00 | 69 | 1021.0 |
| 20260506232018 | 16 | 305 | 20.9 | 38.6 | 0.00 | 0.00 | 0.00 | 68 | 1021.0 |
| 20260506231516 | 16 | 290 | 17.7 | 43.5 | 0.00 | 0.00 | 0.00 | 69 | 1021.1 |
| 20260506231014 | 16 | 302 | 19.3 | 45.1 | 0.00 | 0.00 | 0.00 | 69 | 1021.0 |
| 20260506230510 | 16 | 310 | 22.5 | 48.3 | 0.00 | 0.00 | 0.00 | 69 | 1021.0 |
| 20260506230008 | 16 | 308 | 38.6 | 43.5 | 0.00 | 0.00 | 0.00 | 68 | 1021.2 |
| 20260506225504 | 17 | 303 | 11.3 | 29.0 | 0.00 | 0.00 | 0.00 | 67 | 1020.9 |
| 20260506225000 | 17 | 308 | 14.5 | 29.0 | 0.00 | 0.00 | 0.00 | 68 | 1021.1 |
| 20260506224457 | 16 | 310 | 14.5 | 35.4 | 0.00 | 0.00 | 0.00 | 68 | 1020.8 |
| 20260506223954 | 17 | 317 | 30.6 | 30.6 | 0.00 | 0.00 | 0.00 | 67 | 1021.2 |
| 20260506223450 | 17 | 312 | 25.7 | 35.4 | 0.00 | 0.00 | 0.00 | 66 | 1021.2 |
| 20260506222947 | 17 | 305 | 22.5 | 25.7 | 0.00 | 0.00 | 0.00 | 66 | 1021.1 |
| 20260506222444 | 17 | 308 | 17.7 | 25.7 | 0.00 | 0.00 | 0.00 | 67 | 1021.2 |
| 20260506221940 | 18 | 306 | 14.5 | 19.3 | 0.00 | 0.00 | 0.00 | 66 | 1021.2 |
| 20260506221437 | 17 | 271 | 25.7 | 27.4 | 0.00 | 0.00 | 0.00 | 67 | 1021.2 |
| 20260506220936 | 17 | 299 | 16.1 | 24.1 | 0.00 | 0.00 | 0.00 | 66 | 1021.2 |
| 20260506220431 | 17 | 302 | 17.7 | 33.8 | 0.00 | 0.00 | 0.00 | 65 | 1021.1 |
| 20260506215927 | 17 | 295 | 6.4 | 24.1 | 0.00 | 0.00 | 0.00 | 67 | 1020.9 |
| 20260506215424 | 17 | 318 | 12.9 | 20.9 | 0.00 | 0.00 | 0.00 | 67 | 1021.0 |
| 20260506214920 | 17 | 266 | 6.4 | 30.6 | 0.00 | 0.00 | 0.00 | 65 | 1021.3 |
| 20260506214417 | 18 | 309 | 14.5 | 22.5 | 0.00 | 0.00 | 0.00 | 66 | 1021.0 |
| 20260506213914 | 18 | 247 | 9.7 | 16.1 | 0.00 | 0.00 | 0.00 | 65 | 1021.1 |
| 20260506213412 | 18 | 316 | 8.0 | 17.7 | 0.00 | 0.00 | 0.00 | 68 | 1021.1 |
| 20260506212909 | 17 | 294 | 17.7 | 19.3 | 0.00 | 0.00 | 0.00 | 67 | 1021.1 |
| 20260506212405 | 17 | 311 | 11.3 | 25.7 | 0.00 | 0.00 | 0.00 | 68 | 1021.3 |
| 20260506211859 | 17 | 288 | 11.3 | 20.9 | 0.00 | 0.00 | 0.00 | 70 | 1021.1 |
| 20260506211356 | 18 | 320 | 6.4 | 20.9 | 0.00 | 0.00 | 0.00 | 68 | 1021.1 |
| 20260506210853 | 17 | 287 | 9.7 | 14.5 | 0.00 | 0.00 | 0.00 | 70 | 1021.3 |
| 20260506210350 | 17 | 257 | 8.0 | 22.5 | 0.00 | 0.00 | 0.00 | 67 | 1021.2 |
| 20260506205847 | 17 | 232 | 8.0 | 17.7 | 0.00 | 0.00 | 0.00 | 68 | 1021.1 |
| 20260506205343 | 17 | 284 | 6.4 | 14.5 | 0.00 | 0.00 | 0.00 | 67 | 1021.2 |
| 20260506204840 | 17 | 241 | 14.5 | 19.3 | 0.00 | 0.00 | 0.00 | 68 | 1021.3 |
| 20260506204337 | 17 | 263 | 4.8 | 14.5 | 0.00 | 0.00 | 0.00 | 68 | 1021.4 |
| 20260506203835 | 17 | 250 | 9.7 | 12.9 | 0.00 | 0.00 | 0.00 | 67 | 1021.3 |
| 20260506203332 | 17 | 307 | 8.0 | 17.7 | 0.00 | 0.00 | 0.00 | 68 | 1021.3 |
| 20260506202829 | 17 | 290 | 8.0 | 16.1 | 0.00 | 0.00 | 0.00 | 69 | 1021.2 |
| 20260506202326 | 17 | 280 | 9.7 | 16.1 | 0.00 | 0.00 | 0.00 | 69 | 1021.1 |
| 20260506201822 | 17 | 308 | 9.7 | 16.1 | 0.00 | 0.00 | 0.00 | 69 | 1021.3 |
| 20260506201320 | 17 | 287 | 14.5 | 25.7 | 0.00 | 0.00 | 0.00 | 72 | 1021.3 |
| 20260506200816 | 17 | 321 | 6.4 | 17.7 | 0.00 | 0.00 | 0.00 | 70 | 1021.4 |
| 20260506200312 | 17 | 279 | 14.5 | 20.9 | 0.00 | 0.00 | 0.00 | 70 | 1021.6 |
| 20260506195809 | 17 | 303 | 3.2 | 20.9 | 0.00 | 0.00 | 0.00 | 68 | 1021.6 |
| 20260506195306 | 17 | 295 | 11.3 | 19.3 | 0.00 | 0.00 | 0.00 | 70 | 1021.5 |
| 20260506194803 | 16 | 303 | 4.8 | 14.5 | 0.00 | 0.00 | 0.00 | 70 | 1021.6 |
| 20260506194259 | 16 | 284 | 12.9 | 24.1 | 0.00 | 0.00 | 0.00 | 70 | 1021.5 |
| 20260506193757 | 17 | 292 | 9.7 | 16.1 | 0.00 | 0.00 | 0.00 | 71 | 1021.5 |
| 20260506193254 | 17 | 316 | 4.8 | 8.0 | 0.00 | 0.00 | 0.00 | 72 | 1021.4 |
| 20260506192750 | 16 | 320 | 4.8 | 9.7 | 0.00 | 0.00 | 0.00 | 74 | 1021.6 |
| 20260506192247 | 17 | 218 | 0.0 | 8.0 | 0.00 | 0.00 | 0.00 | 72 | 1021.4 |
| 20260506191743 | 17 | 326 | 1.6 | 6.4 | 0.00 | 0.00 | 0.00 | 72 | 1021.4 |
| 20260506191240 | 16 | 272 | 4.8 | 11.3 | 0.00 | 0.00 | 0.00 | 73 | 1021.5 |
| 20260506190737 | 18 | 86 | 1.6 | 6.4 | 0.00 | 0.00 | 0.00 | 68 | 1021.4 |
| 20260506190233 | 16 | 190 | 3.2 | 9.7 | 0.00 | 0.00 | 0.00 | 73 | 1021.5 |
| 20260506185731 | 16 | 43 | 0.0 | 6.4 | 0.00 | 0.00 | 0.00 | 75 | 1021.5 |
| 20260506185227 | 16 | 323 | 8.0 | 12.9 | 0.00 | 0.00 | 0.00 | 76 | 1021.2 |
| 20260506184725 | 15 | 311 | 1.6 | 8.0 | 0.00 | 0.00 | 0.00 | 77 | 1021.4 |
| 20260506184222 | 15 | 97 | 0.0 | 4.8 | 0.00 | 0.00 | 0.00 | 76 | 1021.4 |
| 20260506183719 | 15 | 350 | 3.2 | 9.7 | 0.00 | 0.00 | 0.00 | 76 | 1021.5 |
| 20260506183214 | 16 | 307 | 9.7 | 9.7 | 0.00 | 0.00 | 0.00 | 77 | 1021.5 |
| 20260506182712 | 15 | 311 | 1.6 | 8.0 | 0.00 | 0.00 | 0.00 | 79 | 1021.4 |
| 20260506182209 | 15 | 271 | 6.4 | 11.3 | 0.00 | 0.00 | 0.00 | 80 | 1021.6 |
| 20260506181707 | 14 | 297 | 8.0 | 14.5 | 0.00 | 0.00 | 0.00 | 80 | 1021.5 |
| 20260506181204 | 14 | 295 | 12.9 | 14.5 | 0.00 | 0.00 | 0.00 | 81 | 1021.5 |
| 20260506180701 | 15 | 311 | 6.4 | 8.0 | 0.00 | 0.00 | 0.00 | 82 | 1021.6 |
| 20260506180157 | 15 | 320 | 6.4 | 11.3 | 0.00 | 0.00 | 0.00 | 81 | 1021.4 |
| 20260506175653 | 15 | 322 | 0.0 | 4.8 | 0.00 | 0.00 | 0.00 | 76 | 1021.8 |
| 20260506175150 | 16 | 163 | 6.4 | 8.0 | 0.00 | 0.00 | 0.00 | 76 | 1021.4 |
| 20260506174643 | 16 | 136 | 0.0 | 9.7 | 0.00 | 0.00 | 0.00 | 76 | 1021.4 |
| 20260506174139 | 16 | 173 | 0.0 | 4.8 | 0.00 | 0.00 | 0.00 | 76 | 1021.5 |
| 20260506173637 | 15 | 83 | 4.8 | 14.5 | 0.00 | 0.00 | 0.00 | 79 | 1021.4 |
| 20260506173133 | 15 | 131 | 4.8 | 12.9 | 0.00 | 0.00 | 0.00 | 78 | 1021.2 |
| 20260506172630 | 15 | 288 | 4.8 | 11.3 | 0.00 | 0.00 | 0.00 | 78 | 1021.2 |
| 20260506172126 | 14 | 85 | 3.2 | 8.0 | 0.00 | 0.00 | 0.00 | 79 | 1021.3 |
| 20260506171624 | 13 | 145 | 6.4 | 8.0 | 0.00 | 0.00 | 0.00 | 81 | 1021.4 |
| 20260506171122 | 13 | 195 | 4.8 | 11.3 | 0.00 | 0.00 | 0.00 | 83 | 1021.6 |
| 20260506170619 | 13 | 204 | 3.2 | 8.0 | 0.00 | 0.00 | 0.00 | 84 | 1021.6 |
| 20260506170116 | 12 | 268 | 6.4 | 9.7 | 0.00 | 0.00 | 0.00 | 85 | 1021.7 |
| 20260506165615 | 13 | 161 | 9.7 | 12.9 | 0.00 | 0.00 | 0.00 | 84 | 1021.6 |
| 20260506165110 | 13 | 166 | 3.2 | 4.8 | 0.00 | 0.00 | 0.00 | 85 | 1021.6 |
| 20260506164608 | 12 | 136 | 8.0 | 16.1 | 0.00 | 0.00 | 0.00 | 87 | 1021.4 |
| 20260506164105 | 12 | 156 | 6.4 | 12.9 | 0.00 | 0.00 | 0.00 | 87 | 1021.3 |
| 20260506163601 | 12 | 151 | 8.0 | 12.9 | 0.00 | 0.00 | 0.00 | 87 | 1021.5 |
| 20260506163057 | 12 | 200 | 4.8 | 6.4 | 0.00 | 0.00 | 0.00 | 88 | 1021.7 |
| 20260506162553 | 12 | 184 | 1.6 | 6.4 | 0.00 | 0.00 | 0.00 | 87 | 1021.7 |
| 20260506162051 | 12 | 176 | 0.0 | 6.4 | 0.00 | 0.00 | 0.00 | 87 | 1021.6 |
| 20260506161548 | 12 | 143 | 8.0 | 8.0 | 0.00 | 0.00 | 0.00 | 85 | 1021.4 |
| 20260506161045 | 12 | 168 | 4.8 | 8.0 | 0.00 | 0.00 | 0.00 | 86 | 1021.4 |
| 20260506160543 | 12 | 170 | 3.2 | 6.4 | 0.00 | 0.00 | 0.00 | 86 | 1021.4 |
| 20260506160039 | 12 | 321 | 0.0 | 4.8 | 0.00 | 0.00 | 0.00 | 83 | 1021.4 |
| 20260506155538 | 12 | 120 | 1.6 | 6.4 | 0.00 | 0.00 | 0.00 | 83 | 1021.2 |
| 20260506153714 | 12 | 147 | 6.4 | 11.3 | 0.00 | 0.00 | 0.00 | 82 | 1020.9 |
| 20260506153212 | 12 | 166 | 0.0 | 3.2 | 0.00 | 0.00 | 0.00 | 83 | 1020.9 |
| 20260506152709 | 12 | 243 | 0.0 | 6.4 | 0.00 | 0.00 | 0.00 | 84 | 1021.1 |
| 20260506152206 | 11 | 262 | 4.8 | 8.0 | 0.00 | 0.00 | 0.00 | 83 | 1021.1 |
| 20260506151706 | 11 | 315 | 3.2 | 12.9 | 0.00 | 0.00 | 0.00 | 84 | 1021.3 |
| 20260506151201 | 11 | 276 | 3.2 | 8.0 | 0.00 | 0.00 | 0.00 | 84 | 1021.2 |
| 20260506150658 | 11 | 254 | 4.8 | 11.3 | 0.00 | 0.00 | 0.00 | 85 | 1021.5 |
| 20260506150155 | 11 | 279 | 11.3 | 11.3 | 0.00 | 0.00 | 0.00 | 85 | 1021.5 |
| 20260506145652 | 11 | 338 | 3.2 | 14.5 | 0.00 | 0.00 | 0.00 | 86 | 1021.4 |
| 20260506145148 | 11 | 284 | 4.8 | 11.3 | 0.00 | 0.00 | 0.00 | 86 | 1021.4 |
| 20260506144646 | 11 | 268 | 9.7 | 14.5 | 0.00 | 0.00 | 0.00 | 86 | 1021.5 |
| 20260506144143 | 11 | 298 | 9.7 | 16.1 | 0.00 | 0.00 | 0.00 | 86 | 1021.4 |
| 20260506143641 | 11 | 321 | 4.8 | 11.3 | 0.00 | 0.00 | 0.00 | 87 | 1021.5 |
| 20260506143138 | 11 | 302 | 16.1 | 16.1 | 0.00 | 0.00 | 0.00 | 86 | 1021.3 |
| 20260506142637 | 11 | 303 | 11.3 | 17.7 | 0.00 | 0.00 | 0.00 | 86 | 1021.1 |
| 20260506142134 | 11 | 288 | 4.8 | 12.9 | 0.00 | 0.00 | 0.00 | 87 | 1020.9 |
| 20260506141631 | 11 | 338 | 1.6 | 4.8 | 0.00 | 0.00 | 0.00 | 89 | 1021.0 |
| 20260506141130 | 11 | 311 | 0.0 | 3.2 | 0.00 | 0.00 | 0.00 | 91 | 1020.9 |